Temp
3 3 2 2 2 2 2 2 2 2 2 2 3 3 3 2 2 2 2 2 2 3 3 3 3 2 2 1 1 1 1 1 1 1 1 1 1 1 1 1 1 1
3 3 2 2 2 2 2 2 2 2 2 2 3 3 3 2 2 2 2 2 2 3 3 3 3 2 2 2 1 1 1 1 1 1 1 1 1 1 1 1 1 1
3 3 2 2 2 2 2 2 2 2 2 2 3 3 3 3 2 2 2 2 2 3 3 3 3 3 2 2 2 1 1 1 1 1 1 1 1 1 1 1 1 1
3 3 3 2 2 2 2 2 2 2 2 2 2 3 3 3 2 2 2 2 2 2 3 3 3 2 2 2 2 1 1 1 1 1 1 1 1 1 1 1 1 1
3 3 2 2 2 2 2 2 2 2 2 2 2 2 2 2 2 2 2 2 3 3 3 3 2 2 2 2 1 1 1 1 1 1 1 1 1 1 1 1 1 0
2 2 2 2 2 2 2 2 2 2 2 2 2 2 2 2 2 2 2 2 3 3 3 3 2 2 2 1 1 1 1 1 1 1 1 1 1 1 1 1 1 0
2 2 2 2 2 2 2 2 2 2 2 2 2 2 2 2 2 2 2 3 3 3 3 3 3 2 2 1 1 1 1 1 1 1 1 1 1 1 1 1 1 0
2 2 2 2 2 2 2 2 2 2 2 2 2 2 2 2 2 2 2 2 3 3 3 3 3 2 2 2 1 1 1 1 1 1 1 1 1 1 1 1 1 1
2 1 1 2 1 2 2 1 2 2 2 2 2 2 2 2 2 2 2 2 3 3 3 3 3 3 2 2 2 2 2 1 1 1 1 1 1 1 1 1 1 1
1 1 1 1 1 1 1 1 2 2 2 2 2 2 2 2 2 2 2 2 2 3 3 3 3 2 2 2 2 2 2 2 2 1 1 2 1 1 1 1 1 1
1 1 1 1 1 1 1 1 2 2 2 2 2 2 2 2 2 2 2 2 2 2 2 3 2 2 2 2 2 2 2 2 2 1 1 1 1 1 1 1 1 1
0 0 0 0 0 0 1 1 2 2 2 2 2 2 2 2 1 1 2 2 2 2 2 2 2 2 2 2 2 2 2 2 2 1 1 1 1 1 1 0 0 0
-0 -0 -0 -0 0 0 1 1 2 2 2 2 2 2 2 1 1 1 2 2 2 2 2 2 2 2 2 2 2 2 1 1 1 1 1 1 1 0 0 0 0 -0
-0 -0 -0 -0 -0 -0 0 1 1 1 1 1 1 1 1 1 1 1 2 2 2 2 2 2 2 2 1 1 1 1 1 1 1 1 1 1 0 0 0 0 -0 -0
-0 -0 -0 -0 -1 -0 0 1 1 1 1 1 1 1 1 1 1 1 1 2 2 2 2 2 2 2 1 1 1 1 1 1 1 1 1 1 0 0 0 -0 -0 -0
0 -0 -1 -1 -1 -0 0 1 1 1 1 1 2 1 1 1 1 1 1 2 2 2 2 1 1 1 1 1 1 1 1 1 1 1 1 1 0 0 -0 -0 -0 -1
0 0 -0 -0 -0 0 1 1 1 1 1 1 2 2 1 1 1 1 1 2 2 2 1 1 1 1 1 1 1 1 1 1 1 1 1 1 0 -0 -0 -0 -1 -1
0 0 0 0 0 1 1 1 1 1 1 1 1 2 2 1 1 1 1 2 2 2 2 1 1 1 1 1 1 1 1 1 1 1 1 0 0 0 -0 -0 -0 -1
0 0 0 0 0 1 1 1 1 1 1 1 1 1 1 1 1 1 2 2 2 1 1 1 1 1 1 1 1 1 1 1 1 1 1 0 0 0 0 -0 -0 -0
0 0 0 0 0 0 0 1 1 1 1 1 1 1 1 1 1 1 2 2 1 1 1 1 1 1 1 1 1 1 1 1 1 1 1 1 0 0 0 0 -0 -0
0 0 0 0 0 0 0 0 0 1 1 1 1 1 1 1 1 1 1 1 1 1 1 1 1 1 1 1 1 1 1 1 1 1 1 1 1 1 1 0 0 0
0 -0 -0 -0 0 0 -0 -0 0 0 1 1 1 1 1 1 1 1 1 1 1 1 1 1 1 1 1 1 1 1 1 1 1 1 1 1 1 1 1 1 0 0
-0 -0 -0 -0 -0 -0 -0 -0 0 0 0 0 0 0 0 0 0 1 1 1 1 1 1 1 1 1 1 1 1 1 1 1 1 1 0 0 0 0 0 0 0 -0
-0 -0 -0 -1 -1 -0 -0 -0 -0 -0 -0 -0 -0 -0 -0 -0 -0 0 0 0 0 0 0 0 0 0 0 0 0 0 0 0 0 0 0 0 0 -0 -0 -0 -0 -0
-1 -1 -1 -1 -1 -1 -1 -1 -1 -1 -1 -1 -1 -1 -1 -1 -0 -0 -0 -0 -0 -1 -1 -1 -1 -1 -0 -0 -0 -0 -0 -0 -0 -0 -0 -0 -0 -0 -0 -0 -0 -1
-1 -1 -1 -1 -1 -1 -1 -1 -1 -1 -1 -1 -1 -1 -1 -1 -1 -1 -1 -1 -1 -1 -1 -1 -1 -1 -1 -1 -1 -1 -1 -1 -1 -1 -1 -1 -1 -1 -1 -1 -1 -1
Height
3137 3139 3140 3141 3141 3142 3143 3143 3143 3143 3143 3143 3143 3143 3142 3142 3142 3143 3143 3144 3144 3144 3145 3145 3146 3146 3147 3148 3150 3151 3152 3153 3154 3155 3156 3157 3157 3158 3158 3159 3160 3162
3137 3139 3140 3140 3141 3142 3142 3142 3142 3142 3142 3142 3142 3142 3141 3141 3142 3142 3143 3143 3143 3143 3144 3144 3145 3145 3146 3147 3148 3149 3151 3152 3153 3154 3155 3155 3156 3156 3157 3158 3159 3160
3138 3139 3140 3141 3141 3142 3142 3142 3142 3142 3141 3141 3141 3140 3140 3140 3141 3142 3142 3143 3143 3143 3143 3144 3144 3144 3145 3146 3147 3148 3150 3151 3152 3153 3153 3154 3155 3155 3156 3157 3158 3159
3138 3139 3140 3141 3141 3141 3142 3142 3142 3141 3141 3140 3140 3140 3139 3139 3140 3140 3141 3142 3142 3142 3142 3143 3144 3144 3145 3146 3147 3148 3149 3150 3151 3152 3152 3153 3154 3154 3155 3156 3157 3159
3138 3139 3139 3140 3140 3140 3140 3141 3141 3141 3140 3140 3139 3139 3139 3139 3139 3140 3140 3141 3141 3141 3142 3142 3143 3144 3145 3146 3147 3148 3149 3150 3150 3151 3152 3153 3154 3154 3155 3156 3157 3158
3136 3137 3138 3139 3139 3139 3139 3139 3139 3140 3139 3139 3139 3139 3139 3139 3139 3139 3140 3140 3140 3141 3141 3142 3143 3144 3145 3146 3147 3148 3149 3149 3150 3151 3152 3153 3153 3154 3155 3156 3157 3158
3135 3136 3137 3137 3138 3138 3138 3138 3138 3139 3138 3138 3138 3138 3138 3138 3139 3139 3140 3140 3140 3141 3141 3142 3143 3143 3144 3146 3147 3147 3148 3149 3150 3150 3151 3152 3153 3154 3155 3156 3157 3157
3132 3133 3135 3136 3136 3137 3137 3137 3137 3137 3137 3137 3137 3137 3137 3137 3138 3138 3139 3139 3140 3140 3141 3142 3142 3143 3144 3145 3146 3147 3148 3149 3149 3150 3151 3152 3153 3154 3154 3155 3156 3157
3129 3131 3133 3134 3135 3135 3136 3136 3136 3136 3136 3136 3136 3136 3135 3136 3136 3137 3138 3139 3139 3140 3140 3141 3142 3143 3143 3144 3145 3146 3147 3148 3149 3150 3151 3152 3153 3153 3154 3155 3156 3157
3128 3130 3131 3133 3133 3134 3134 3134 3134 3134 3135 3135 3135 3135 3134 3135 3135 3136 3137 3137 3138 3139 3140 3140 3141 3142 3143 3144 3145 3146 3147 3147 3148 3149 3150 3151 3152 3153 3154 3154 3155 3156
3126 3128 3130 3131 3132 3132 3132 3133 3133 3133 3133 3133 3134 3134 3134 3134 3134 3135 3136 3136 3137 3138 3139 3140 3141 3142 3143 3144 3145 3146 3146 3147 3148 3148 3149 3150 3151 3152 3153 3154 3155 3156
3123 3125 3127 3128 3130 3131 3131 3131 3132 3132 3132 3132 3132 3133 3133 3133 3133 3134 3135 3136 3137 3137 3138 3139 3140 3141 3142 3143 3144 3145 3146 3147 3148 3148 3149 3150 3151 3152 3153 3154 3155 3156
3119 3120 3122 3125 3127 3128 3128 3129 3130 3131 3131 3131 3132 3132 3132 3133 3133 3134 3135 3135 3136 3137 3138 3139 3140 3141 3142 3143 3144 3145 3146 3147 3147 3148 3149 3150 3151 3152 3152 3153 3154 3155
3115 3117 3119 3121 3123 3124 3125 3127 3128 3129 3130 3130 3131 3131 3132 3132 3133 3133 3134 3135 3136 3137 3138 3139 3140 3141 3142 3143 3144 3145 3146 3146 3147 3148 3148 3149 3150 3151 3152 3153 3154 3155
3113 3116 3118 3119 3121 3122 3124 3125 3127 3128 3129 3129 3130 3131 3131 3131 3132 3133 3134 3135 3136 3137 3138 3139 3140 3141 3142 3143 3143 3144 3145 3146 3147 3147 3148 3149 3150 3150 3151 3152 3153 3153
3111 3113 3115 3117 3119 3121 3123 3124 3125 3127 3128 3128 3129 3130 3130 3131 3132 3132 3133 3134 3135 3136 3137 3138 3139 3140 3141 3142 3143 3144 3144 3145 3146 3146 3147 3148 3149 3150 3150 3151 3152 3152
3108 3110 3113 3115 3117 3120 3121 3122 3124 3125 3127 3128 3128 3129 3130 3130 3131 3132 3132 3133 3134 3135 3136 3137 3138 3139 3140 3141 3142 3143 3143 3144 3145 3145 3146 3147 3148 3148 3149 3150 3150 3151
3107 3109 3111 3113 3116 3118 3119 3121 3122 3124 3125 3126 3127 3128 3129 3130 3130 3131 3132 3133 3133 3134 3135 3136 3136 3137 3138 3139 3140 3141 3141 3142 3143 3144 3145 3146 3146 3147 3148 3148 3149 3150
3106 3108 3109 3111 3114 3116 3117 3119 3120 3122 3123 3124 3126 3127 3128 3129 3130 3130 3131 3132 3132 3133 3133 3134 3134 3135 3136 3137 3138 3138 3139 3140 3141 3142 3143 3144 3144 3145 3146 3146 3147 3148
3105 3106 3108 3111 3113 3114 3116 3117 3118 3120 3121 3123 3124 3125 3126 3128 3129 3129 3130 3131 3131 3131 3132 3132 3133 3134 3135 3135 3136 3137 3138 3138 3139 3140 3141 3142 3142 3143 3144 3144 3145 3145
3104 3106 3108 3110 3111 3112 3113 3115 3116 3118 3120 3121 3123 3124 3125 3126 3127 3128 3128 3129 3130 3130 3130 3131 3132 3132 3133 3133 3134 3135 3135 3136 3137 3138 3139 3139 3140 3140 3141 3141 3142 3142
3104 3105 3107 3108 3110 3110 3111 3113 3114 3116 3117 3119 3121 3122 3123 3124 3125 3125 3126 3127 3128 3128 3129 3129 3130 3130 3131 3131 3132 3132 3133 3133 3134 3135 3135 3136 3137 3137 3137 3138 3138 3137
3103 3104 3106 3108 3109 3109 3110 3111 3112 3113 3115 3116 3118 3119 3121 3122 3123 3123 3124 3125 3125 3126 3126 3127 3127 3128 3128 3128 3129 3129 3130 3130 3131 3131 3132 3133 3133 3134 3134 3134 3134 3134
3101 3103 3105 3106 3108 3108 3108 3109 3110 3111 3112 3113 3114 3116 3117 3118 3119 3120 3121 3122 3122 3123 3123 3123 3124 3124 3125 3125 3126 3126 3127 3127 3128 3128 3129 3129 3130 3130 3130 3130 3130 3131
3100 3101 3103 3104 3106 3106 3107 3108 3109 3110 3110 3109 3110 3112 3113 3115 3116 3117 3117 3118 3119 3120 3121 3121 3121 3121 3122 3122 3123 3123 3124 3124 3124 3124 3125 3125 3126 3126 3127 3127 3127 3127
3099 3100 3101 3102 3103 3105 3106 3106 3108 3108 3108 3108 3108 3109 3109 3110 3112 3113 3114 3115 3116 3117 3118 3118 3119 3119 3119 3119 3119 3119 3120 3120 3120 3120 3120 3121 3121 3122 3122 3122 3123 3123
Wind_Speed
14 13 11 9 8 6 4 5 8 10 11 10 10 9 7 6 6 7 7 7 7 8 7 7 8 9 10 13 14 14 13 12 11 11 11 11 11 11 11 11 10 9
15 13 11 10 8 7 6 7 9 11 12 12 11 10 8 7 7 7 6 6 7 8 8 8 8 8 9 11 13 14 14 13 12 12 12 12 12 12 13 12 11 9
15 12 10 10 9 9 8 9 11 13 13 14 13 11 9 6 7 7 6 5 7 8 9 8 8 9 10 11 12 13 13 13 12 12 11 11 11 11 11 10 9 9
14 11 10 11 11 11 10 11 13 14 14 14 14 12 9 6 7 7 6 6 7 8 9 9 9 9 10 10 12 12 12 11 11 10 9 9 9 9 10 9 9 9
14 12 12 12 12 11 11 12 14 14 14 15 14 12 9 6 6 7 7 7 7 8 9 9 9 9 10 10 11 11 11 10 9 9 9 9 9 9 10 10 10 11
15 14 14 12 12 11 11 13 14 14 14 15 14 12 9 7 7 8 8 7 7 8 9 10 10 10 10 10 11 11 11 10 10 9 9 9 9 9 10 10 10 10
17 16 15 13 12 12 12 14 14 14 14 15 14 11 8 7 7 8 9 7 7 8 10 10 10 11 11 11 11 11 11 10 10 9 9 9 10 10 10 9 10 9
20 18 17 15 14 13 14 14 14 14 14 14 13 10 7 7 9 10 9 7 7 9 9 10 10 11 11 11 11 11 10 10 10 10 10 10 10 10 10 10 9 9
22 21 19 18 17 16 15 15 15 14 13 13 12 9 7 6 9 10 8 7 7 8 9 10 11 11 10 11 11 11 11 11 11 11 11 11 11 11 11 11 10 10
24 23 22 21 19 18 16 15 15 14 13 13 11 9 6 6 9 11 9 7 8 9 10 11 11 11 11 11 11 11 11 11 12 11 11 12 12 12 12 12 12 12
25 25 24 23 21 19 18 16 15 14 13 12 11 8 6 7 10 11 9 8 9 10 11 11 12 12 13 12 11 11 11 11 11 11 11 11 11 12 13 13 12 12
27 27 26 24 22 19 17 16 15 14 13 12 10 8 7 8 11 12 10 10 11 11 12 12 13 13 13 12 12 11 11 11 10 10 10 10 11 11 12 12 11 11
31 31 29 26 23 20 18 17 15 13 12 11 10 9 7 9 13 13 11 11 12 12 13 13 13 13 12 12 12 11 11 11 11 11 10 10 11 11 11 11 10 9
33 33 31 28 25 23 20 17 15 13 11 11 10 10 8 9 13 14 12 12 13 13 13 13 13 13 12 12 11 11 10 11 11 11 11 11 11 10 9 9 8 8
29 27 26 26 25 23 18 15 14 13 12 12 11 10 9 10 13 15 14 14 14 14 13 13 13 12 12 12 11 11 11 11 12 12 12 11 10 10 9 9 9 8
20 22 23 23 23 21 18 16 15 14 13 13 12 11 10 10 13 16 16 16 15 15 14 13 13 12 12 12 12 12 12 12 12 13 13 12 12 11 11 11 11 10
18 21 22 23 22 21 19 18 16 15 14 14 13 12 11 11 13 15 17 17 16 15 14 13 13 13 13 13 13 13 13 13 13 13 14 14 14 13 13 13 13 13
18 20 22 22 22 21 20 19 16 15 15 14 13 12 11 11 12 14 16 17 17 16 16 15 15 15 15 15 15 15 15 15 15 15 15 16 16 16 16 16 16 16
19 21 23 22 21 21 21 20 18 17 17 16 15 14 12 12 12 13 14 15 16 17 17 17 17 17 17 17 17 17 18 18 18 18 19 19 19 19 20 20 20 21
19 20 21 21 21 22 22 21 20 19 18 18 17 16 15 14 13 14 13 14 15 16 17 18 18 18 17 18 18 18 19 19 20 21 22 22 23 23 24 24 25 25
18 18 19 20 21 22 23 23 22 21 20 19 19 18 18 17 16 15 14 14 14 15 16 17 18 18 18 18 18 18 19 19 20 21 22 23 23 24 25 26 27 28
18 18 20 21 22 23 24 23 23 23 22 22 21 20 20 19 19 18 17 17 17 17 18 18 19 20 20 20 20 20 21 21 21 22 22 23 23 24 25 26 28 29
16 17 19 20 22 24 25 25 25 26 25 24 24 24 24 23 22 21 21 21 22 22 22 23 23 24 24 24 24 24 24 24 24 24 24 24 25 26 27 28 30 31
16 16 18 19 22 24 25 26 27 28 28 28 28 27 26 26 25 25 25 25 26 26 26 26 27 27 28 28 28 27 27 27 27 26 26 27 27 27 28 29 30 32
16 17 18 20 21 22 22 22 22 23 27 30 30 30 29 28 27 28 27 27 27 26 25 26 26 27 28 29 29 28 28 28 28 28 28 29 29 29 29 30 31 31
18 19 19 20 20 20 21 21 20 21 23 24 24 26 28 28 27 27 27 27 27 26 25 25 26 27 28 28 29 29 29 29 29 30 31 31 31 31 32 32 32 32
Wind_Direction
188 187 188 193 203 223 261 301 318 319 316 311 307 307 295 268 253 253 253 253 254 254 247 232 217 212 211 212 212 209 208 211 216 221 223 224 223 222 224 225 225 223
195 195 198 203 216 239 268 300 315 314 311 308 305 307 298 260 235 237 248 255 255 254 247 232 219 211 206 206 206 205 208 212 216 218 219 222 225 226 227 226 224 222
205 206 210 219 235 254 274 296 306 308 308 306 304 308 305 272 238 230 236 247 249 247 242 232 220 207 198 197 198 199 203 208 212 218 224 226 226 224 221 215 210 208
216 220 227 238 251 262 275 292 299 302 303 301 301 304 301 276 242 229 230 241 242 236 230 226 219 206 195 192 193 195 200 206 214 223 225 220 212 203 197 191 189 186
219 224 231 242 252 261 275 290 294 295 295 293 294 295 290 272 241 224 225 239 240 230 223 218 212 204 196 192 193 196 198 204 212 216 213 205 195 187 182 179 176 169
216 221 228 238 249 260 275 286 289 288 286 286 288 288 279 261 238 220 220 232 234 226 221 215 206 197 191 189 189 192 195 199 202 202 200 192 181 175 174 172 167 161
217 221 226 233 243 255 271 280 281 279 278 279 282 281 269 246 226 216 218 225 227 224 219 212 203 191 183 180 180 184 188 191 192 187 180 172 163 159 159 157 154 151
217 220 225 232 238 249 262 269 272 271 270 274 277 276 267 238 214 209 212 217 221 220 212 201 197 189 178 172 173 176 178 179 178 171 162 156 153 150 147 145 145 144
216 218 224 231 236 243 253 259 263 263 265 270 272 272 270 239 210 203 205 210 213 209 199 190 187 182 173 170 171 172 171 169 168 163 156 152 150 146 141 138 138 138
219 222 226 231 234 238 244 249 252 252 257 264 265 266 264 233 210 203 202 205 202 196 190 183 178 173 170 170 171 171 168 165 163 160 155 151 146 140 135 133 133 134
220 223 225 229 233 234 236 240 243 243 251 258 257 258 252 221 208 205 203 200 194 188 184 180 175 171 168 169 171 171 169 166 163 158 152 146 141 136 132 129 130 132
219 221 222 226 230 230 230 234 237 238 245 252 251 251 242 213 204 203 201 195 188 183 181 178 175 173 170 172 175 173 169 167 162 154 148 145 141 137 135 132 133 133
217 218 217 221 223 220 220 224 227 231 241 247 249 249 239 212 201 200 198 192 187 183 183 181 179 178 176 176 179 176 170 169 163 154 150 149 148 147 147 147 146 146
220 220 217 218 216 210 209 214 218 225 236 242 243 243 237 214 202 199 195 192 190 186 186 187 186 184 182 182 183 180 175 174 171 166 164 164 164 163 164 167 168 171
225 226 223 222 218 209 207 215 221 225 231 236 237 233 229 216 205 200 196 194 194 191 188 191 192 192 192 191 190 189 187 187 184 182 184 186 186 185 186 189 193 197
215 214 213 214 212 208 210 218 223 225 227 232 233 224 218 213 206 203 200 197 198 198 194 194 197 201 203 204 204 204 203 202 200 199 200 204 206 207 207 209 212 215
198 196 196 199 200 203 211 217 219 223 225 229 233 228 219 213 208 206 205 203 203 203 201 202 204 208 212 215 216 216 216 217 216 215 215 216 219 221 222 224 227 230
197 192 192 196 198 202 211 213 215 220 219 221 229 233 228 219 213 211 210 209 209 210 210 210 210 213 216 219 220 222 223 225 227 227 228 229 230 231 233 235 238 241
200 198 197 198 201 207 211 211 212 216 215 215 221 228 229 224 218 216 214 214 214 215 218 219 219 221 223 225 227 229 230 231 233 234 235 236 237 238 239 241 244 246
203 203 203 201 205 211 212 212 213 215 215 215 218 221 225 225 223 221 220 220 219 219 223 227 229 231 232 235 238 240 242 242 242 242 242 242 243 244 245 247 249 251
208 209 209 207 210 214 214 213 216 218 219 219 220 221 222 224 226 227 227 228 228 228 229 231 234 235 237 240 243 246 249 250 252 253 253 253 253 254 254 254 255 256
210 217 217 213 214 217 217 216 218 222 223 222 224 226 227 227 228 229 230 231 233 233 233 234 236 237 237 239 242 245 247 249 252 255 257 259 261 262 263 263 262 261
211 221 224 219 218 222 222 219 221 225 226 225 226 229 231 232 231 230 230 231 232 232 233 234 235 236 237 238 239 241 243 245 248 250 253 255 258 260 262 264 265 265
219 227 230 227 227 231 231 228 227 225 225 227 228 230 232 231 230 231 232 233 233 233 234 236 238 239 239 240 241 242 243 244 246 249 252 254 255 257 258 260 261 263
231 232 233 232 233 237 241 245 244 237 233 230 227 228 231 230 231 234 236 238 239 239 240 241 243 246 247 247 248 248 248 249 251 253 255 257 258 259 260 261 262 262
240 238 239 241 244 246 250 256 261 260 258 249 234 227 227 228 231 237 241 243 245 245 246 247 249 252 254 255 255 256 256 256 257 258 259 260 261 262 262 263 264 265